SR 1 @ Trap Shooters Rd, Magnolia DE USA current weather conditions

sailwx.info

Wind from 080 at 10 knots gusting 13

Air temperature 6.7° C
Dewpoint 4.8° C

Last reported at 2020-Jan-24 22:00 UTC.
Time now 2020-Jan-24 23:14 UTC

Location: N 39°05' W 075°27'.
View on Google Maps.

See reports from other nearby stations

  
Tides and Currents Weather Stations Pressure Air Temp Water Temp Dewpoint Dewpoint Depression Visibility Wind Speed Wind Dir Waves Ship Positions
date/time (UTC)wind fromknots sea level pressurealtimeterstation pressurevisibilityair tempwater tempwave heightnotes
2020-Jan-24 22:00 080 10 gusting 13 6.7
2020-Jan-24 21:45 080 7 gusting 13 6.8
2020-Jan-24 21:40 080 8 gusting 13 6.8
2020-Jan-24 21:35 080 8 gusting 13 6.8
2020-Jan-24 21:30 085 10 gusting 14 7.1
2020-Jan-24 21:25 085 9 gusting 14 7.1
2020-Jan-24 21:20 080 9 gusting 13 7.3
2020-Jan-24 21:15 080 9 gusting 13 7.5
2020-Jan-24 21:10 085 8 gusting 11 7.6
2020-Jan-24 21:05 090 6 gusting 10 7.7
2020-Jan-24 21:00 075 7 gusting 10 7.6
2020-Jan-24 20:55 080 6 gusting 10 7.7
2020-Jan-24 20:50 085 7 gusting 11 7.8
2020-Jan-24 20:45 085 8 gusting 14 7.8
2020-Jan-24 20:40 080 11 gusting 17 7.8
2020-Jan-24 20:35 090 12 gusting 20 8.1
2020-Jan-24 20:30 080 14 gusting 21 8.5
2020-Jan-24 20:25 080 15 gusting 21 8.7
2020-Jan-24 20:20 080 13 gusting 19 8.8
2020-Jan-24 20:15 080 13 gusting 20 8.7
2020-Jan-24 20:10 085 14 gusting 22 8.6
2020-Jan-24 20:05 085 15 gusting 20 8.7
2020-Jan-24 20:00 085 14 gusting 20 9.1
2020-Jan-24 19:55 085 15 gusting 20 9.0
2020-Jan-24 19:50 090 13 gusting 18 9.2
2020-Jan-24 19:45 095 14 gusting 18 9.1
2020-Jan-24 19:40 095 13 gusting 18 9.1
2020-Jan-24 19:35 085 11 gusting 20 9.2
2020-Jan-24 19:30 090 14 gusting 20 9.1
2020-Jan-24 19:25 080 14 gusting 20 9.1
2020-Jan-24 19:20 090 13 gusting 22 9.2
2020-Jan-24 19:15 085 15 gusting 22 8.8
2020-Jan-24 19:10 080 12 gusting 18 8.7
2020-Jan-24 19:05 090 14 gusting 18 8.6
2020-Jan-24 19:00 090 10 gusting 17 8.7
2020-Jan-24 18:55 085 13 gusting 16 8.6
2020-Jan-24 18:50 090 12 gusting 16 8.6
2020-Jan-24 18:45 095 10 gusting 17 9.0
2020-Jan-24 18:40 095 11 gusting 17 8.6
2020-Jan-24 18:35 085 13 gusting 18 8.8
2020-Jan-24 18:30 085 14 gusting 18 9.0
2020-Jan-24 18:25 080 13 gusting 18 8.8
2020-Jan-24 18:20 095 13 gusting 20 9.3
2020-Jan-24 18:15 085 14 gusting 20 9.1
2020-Jan-24 18:10 080 12 gusting 16 9.1
2020-Jan-24 18:05 090 10 gusting 18 9.3
2020-Jan-24 18:00 095 14 gusting 20 9.6
2020-Jan-24 17:55 085 13 gusting 20 9.3
2020-Jan-24 17:50 095 15 gusting 20 9.1
2020-Jan-24 17:45 095 15 gusting 18 9.1
2020-Jan-24 17:40 090 11 gusting 16 9.3
2020-Jan-24 17:35 080 10 gusting 16 8.8
2020-Jan-24 17:30 085 10 gusting 16 8.3
2020-Jan-24 17:25 095 12 gusting 16 8.1
2020-Jan-24 17:20 090 11 gusting 16 7.6
2020-Jan-24 17:15 090 11 gusting 16 7.6
2020-Jan-24 17:10 075 12 gusting 16 7.6
2020-Jan-24 17:05 080 10 gusting 16 7.2
2020-Jan-24 17:00 085 12 gusting 16 7.2
2020-Jan-24 16:55 095 11 gusting 15 7.3
2020-Jan-24 16:50 090 9 gusting 13 7.6
2020-Jan-24 16:45 080 10 gusting 16 7.3
2020-Jan-24 16:40 085 12 gusting 17 7.1
2020-Jan-24 16:35 080 12 gusting 17 7.1
2020-Jan-24 16:30 085 11 gusting 14 7.0
2020-Jan-24 16:25 090 12 gusting 14 6.7
2020-Jan-24 16:20 085 10 gusting 13 7.0
2020-Jan-24 16:15 085 10 gusting 13 6.6
2020-Jan-24 16:10 085 9 gusting 13 6.3
2020-Jan-24 16:05 085 10 gusting 13 6.3
2020-Jan-24 16:00 085 9 gusting 13 6.1
2020-Jan-24 15:55 080 10 gusting 13 6.1
2020-Jan-24 15:50 090 8 gusting 11 6.0
2020-Jan-24 15:45 075 8 gusting 11 6.1
2020-Jan-24 15:40 080 7 gusting 12 6.0
2020-Jan-24 15:35 080 8 gusting 12 5.7
2020-Jan-24 15:30 080 5 gusting 10 5.6
2020-Jan-24 15:25 070 6 gusting 10 5.5
2020-Jan-24 15:20 075 8 gusting 12 5.6
2020-Jan-24 15:15 070 8 gusting 12 5.6
2020-Jan-24 15:10 070 8 gusting 12 5.5
2020-Jan-24 15:05 070 9 gusting 11 5.5
2020-Jan-24 15:00 075 7 gusting 11 5.3
2020-Jan-24 14:55 065 9 gusting 11 5.5
2020-Jan-24 14:50 065 5 gusting 8 5.6
2020-Jan-24 14:45 075 6 gusting 8 5.6
2020-Jan-24 14:40 060 5 gusting 10 5.5
2020-Jan-24 14:35 065 6 gusting 10 5.2
2020-Jan-24 14:30 065 5 gusting 10 5.3
2020-Jan-24 14:25 070 7 gusting 10 5.2
2020-Jan-24 14:20 065 4 gusting 7 5.1
2020-Jan-24 14:15 050 5 gusting 7 4.6
2020-Jan-24 14:10 045 5 gusting 7 4.5
2020-Jan-24 14:05 040 4 gusting 6 4.1
2020-Jan-24 14:00 045 4 gusting 6 3.9
2020-Jan-24 13:55 025 3 gusting 6 3.6
2020-Jan-24 13:50 005 3 gusting 5 3.1
2020-Jan-24 13:45 355 3 gusting 6 2.9
2020-Jan-24 13:40 2.6
2020-Jan-24 13:35 355 2 gusting 5 2.4
2020-Jan-24 13:30 015 2 gusting 5 2.2
2020-Jan-24 13:25 015 3 gusting 5 2.1
2020-Jan-24 13:20 040 1 gusting 3 1.9
2020-Jan-24 13:15 030 2 gusting 4 1.6
2020-Jan-24 13:10 020 2 gusting 5 1.4
2020-Jan-24 13:05 005 2 gusting 5 1.5
2020-Jan-24 13:00 005 3 gusting 5 1.1
2020-Jan-24 12:55 335 2 gusting 2 0.8
2020-Jan-24 12:50 330 2 gusting 2 1.0
2020-Jan-24 12:45 320 1 gusting 2 0.8
2020-Jan-24 12:40 315 1 gusting 2 0.7
2020-Jan-24 12:35 315 1 gusting 4 0.7
2020-Jan-24 12:30 340 1 gusting 4 1.1
2020-Jan-24 12:25 1.1
2020-Jan-24 12:20 005 3 gusting 5 1.1
2020-Jan-24 12:15 015 3 gusting 5 1.1
2020-Jan-24 12:10 010 3 gusting 6 1.2
2020-Jan-24 12:05 010 4 gusting 6 1.1
2020-Jan-24 12:00 355 4 gusting 6 1.0
2020-Jan-24 11:55 355 4 gusting 6 1.0
2020-Jan-24 11:50 1.1
2020-Jan-24 11:45 1.1
2020-Jan-24 11:40 1.1
2020-Jan-24 11:35 005 3 gusting 5 1.0
2020-Jan-24 11:30 015 3 gusting 6 1.1
2020-Jan-24 11:25 010 4 gusting 6 1.1
2020-Jan-24 11:20 1.1
2020-Jan-24 11:15 005 4 gusting 5 1.1
2020-Jan-24 11:10 005 4 gusting 6 1.2
2020-Jan-24 11:05 015 4 gusting 6 1.2
2020-Jan-24 11:00 025 3 gusting 6 1.1
2020-Jan-24 10:55 020 4 gusting 6 0.8
2020-Jan-24 10:50 0.2
2020-Jan-24 10:45 355 2 gusting 5 0.1
2020-Jan-24 10:40 0.5
2020-Jan-24 10:35 015 4 gusting 5 0.5
2020-Jan-24 10:30 010 2 gusting 5 0.2
2020-Jan-24 10:25 010 3 gusting 6 0.1
2020-Jan-24 10:20 -0.4
2020-Jan-24 10:15 335 4 gusting 5 -0.7
2020-Jan-24 10:10 340 4 gusting 5 -0.8
2020-Jan-24 10:05 335 4 gusting 5 -0.9
2020-Jan-24 10:00 335 4 gusting 5 -0.8
2020-Jan-24 09:55 330 4 gusting 5 -0.9
2020-Jan-24 09:50 330 3 gusting 4 -0.9
2020-Jan-24 09:45 330 3 gusting 4 -0.8
2020-Jan-24 09:40 330 3 gusting 3 -0.7
2020-Jan-24 09:35 310 3 gusting 5 -0.7
2020-Jan-24 09:30 335 4 gusting 5 -0.5
2020-Jan-24 09:25 335 4 gusting 5 -0.5
2020-Jan-24 09:20 340 4 gusting 5 -0.4
2020-Jan-24 09:15 345 4 gusting 6 -0.3
2020-Jan-24 09:10 345 4 gusting 6 -0.1
2020-Jan-24 09:05 345 5 gusting 5 -0.0
2020-Jan-24 09:00 335 5 gusting 5 -0.3
2020-Jan-24 08:55 335 5 gusting 6 -0.4
2020-Jan-24 08:50 335 5 gusting 6 -0.3
2020-Jan-24 08:45 330 6 gusting 6 -0.4
2020-Jan-24 08:40 325 5 gusting 6 -0.3
2020-Jan-24 08:35 320 6 gusting 6 -0.1
2020-Jan-24 08:30 310 4 gusting 5 -0.1
2020-Jan-24 08:25 325 4 gusting 5 -0.1
2020-Jan-24 08:20 335 5 gusting 5 0.1
2020-Jan-24 08:15 340 4 gusting 5 0.3
2020-Jan-24 08:10 320 4 gusting 5 0.1
2020-Jan-24 08:05 300 5 gusting 5 -0.0
2020-Jan-24 08:00 320 5 gusting 5 0.2
2020-Jan-24 07:55 320 5 gusting 5 0.1
2020-Jan-24 07:50 315 5 gusting 5 -0.0
2020-Jan-24 07:45 305 4 gusting 5 -0.1
2020-Jan-24 07:40 315 4 gusting 5 -0.0
2020-Jan-24 07:35 325 3 gusting 4 -0.0
2020-Jan-24 07:30 330 3 gusting 4 -0.0
2020-Jan-24 07:25 355 3 gusting 4 0.2
2020-Jan-24 07:20 345 3 gusting 3 0.1
2020-Jan-24 07:15 335 3 gusting 4 0.2
2020-Jan-24 07:10 0.5
2020-Jan-24 07:05 340 2 gusting 3 0.1
2020-Jan-24 07:00 315 2 gusting 3 0.1
2020-Jan-24 06:55 335 2 gusting 3 0.2
2020-Jan-24 06:50 350 2 gusting 3 0.6
2020-Jan-24 06:45 015 2 gusting 3 0.8
2020-Jan-24 06:40 020 2 gusting 4 0.8
2020-Jan-24 06:35 020 2 gusting 5 0.6
2020-Jan-24 06:30 355 4 gusting 6 0.5
2020-Jan-24 06:25 340 5 gusting 6 0.2
2020-Jan-24 06:20 340 5 gusting 6 0.1
2020-Jan-24 06:15 340 5 gusting 6 0.1
2020-Jan-24 06:10 325 4 gusting 4 0.1
2020-Jan-24 06:05 325 3 gusting 4 0.2
2020-Jan-24 06:00 320 3 gusting 3 0.3
2020-Jan-24 05:55 300 3 gusting 3 0.1
2020-Jan-24 05:50 300 3 gusting 3 0.1
2020-Jan-24 05:45 340 2 gusting 3 0.2
2020-Jan-24 05:40 325 3 gusting 3 0.1
2020-Jan-24 05:35 315 2 gusting 3 0.1
2020-Jan-24 05:30 320 2 gusting 3 -0.0
2020-Jan-24 05:25 330 2 gusting 3 -0.1
2020-Jan-24 05:20 310 3 gusting 3 -0.4
2020-Jan-24 05:15 325 3 gusting 3 -0.0
2020-Jan-24 05:10 345 2 gusting 3 -0.0
2020-Jan-24 05:05 345 2 gusting 3 -0.0
2020-Jan-24 05:00 340 1 gusting 3 0.1
2020-Jan-24 04:55 350 2 gusting 3 0.1
2020-Jan-24 04:50 345 2 gusting 3 -0.1
2020-Jan-24 04:45 340 3 gusting 4 0.1
2020-Jan-24 04:40 345 3 gusting 4 0.1
2020-Jan-24 04:35 325 4 gusting 4 0.1
2020-Jan-24 04:30 315 4 gusting 4 -0.0
2020-Jan-24 04:25 315 3 gusting 3 -0.0
2020-Jan-24 04:20 320 3 gusting 3 -0.0
2020-Jan-24 04:15 330 2 gusting 3 0.1
2020-Jan-24 04:10 330 1 gusting 2 0.1
2020-Jan-24 04:05 335 2 gusting 4 0.2
2020-Jan-24 04:00 350 2 gusting 4 0.3
2020-Jan-24 03:55 350 3 gusting 3 0.5
2020-Jan-24 03:50 0.6
2020-Jan-24 03:45 330 1 gusting 2 0.3
2020-Jan-24 03:40 335 2 gusting 2 0.2
2020-Jan-24 03:35 340 1 gusting 2 0.3
2020-Jan-24 03:30 005 1 gusting 2 0.6
2020-Jan-24 03:25 010 1 gusting 3 0.5
2020-Jan-24 03:20 355 2 gusting 3 0.6
2020-Jan-24 03:15 350 0 gusting 2 0.8
2020-Jan-24 03:10 075 1 gusting 4 1.1
2020-Jan-24 03:05 025 2 gusting 4 1.0
2020-Jan-24 03:00 350 2 gusting 4 0.6
2020-Jan-24 02:55 340 2 gusting 4 0.7
2020-Jan-24 02:50 335 4 gusting 4 0.6
2020-Jan-24 02:45 320 3 gusting 3 0.5
2020-Jan-24 02:40 315 3 gusting 3 1.1
2020-Jan-24 02:35 320 2 gusting 3 1.1
2020-Jan-24 02:30 305 3 gusting 4 0.6
2020-Jan-24 02:25 300 3 gusting 4 0.6
2020-Jan-24 02:20 315 3 gusting 4 0.8
2020-Jan-24 02:15 305 4 gusting 5 0.3
2020-Jan-24 02:10 295 5 gusting 5 -0.3
2020-Jan-24 02:05 305 4 gusting 5 -0.1
2020-Jan-24 02:00 340 2 gusting 3 0.3
2020-Jan-24 01:55 355 2 gusting 3 1.0
2020-Jan-24 01:50 055 2 gusting 3 1.7
2020-Jan-24 01:45 070 2 gusting 3 1.9
2020-Jan-24 01:40 075 2 gusting 3 2.0
2020-Jan-24 01:35 055 2 gusting 3 2.0
2020-Jan-24 01:30 060 2 gusting 2 1.9
2020-Jan-24 01:25 055 1 gusting 2 1.6
2020-Jan-24 01:20 030 1 gusting 3 1.2
2020-Jan-24 01:15 085 1 gusting 5 1.4
2020-Jan-24 01:10 085 4 gusting 5 1.4
2020-Jan-24 01:05 085 4 gusting 4 1.5
2020-Jan-24 01:00 085 3 gusting 4 1.9
2020-Jan-24 00:55 110 3 gusting 5 2.1
2020-Jan-24 00:50 120 4 gusting 5 2.1
2020-Jan-24 00:45 125 3 gusting 5 2.2
2020-Jan-24 00:40 115 4 gusting 5 2.1
2020-Jan-24 00:35 110 4 gusting 5 1.5
2020-Jan-24 00:30 105 5 gusting 5 0.8
2020-Jan-24 00:25 090 4 gusting 5 0.7
2020-Jan-24 00:20 085 4 gusting 5 1.4
2020-Jan-24 00:15 095 3 gusting 5 1.5
2020-Jan-24 00:10 105 4 gusting 4 2.0
2020-Jan-24 00:05 120 2 gusting 3 2.4
2020-Jan-24 00:00 125 2 gusting 3 2.4
2020-Jan-23 23:55 110 2 gusting 3 2.6
2020-Jan-23 23:50 125 1 gusting 3 2.2
2020-Jan-23 23:45 145 1 gusting 3 2.5
2020-Jan-23 23:40 110 2 gusting 3 2.4
2020-Jan-23 23:35 105 2 gusting 3 2.4
2020-Jan-23 23:30 090 2 gusting 2 2.6
2020-Jan-23 23:25 095 2 gusting 3 2.6
2020-Jan-23 23:20 085 2 gusting 4 2.2
2020-Jan-23 23:15 085 4 gusting 4 1.6
2020-Jan-23 23:10 085 4 gusting 4 1.7
2020-Jan-23 23:05 085 3 gusting 3 2.5
2020-Jan-23 23:00 075 2 gusting 3 3.6
2020-Jan-23 22:55 145 1 gusting 2 3.6
2020-Jan-23 22:50 070 0 gusting 2 3.6
2020-Jan-23 22:45 060 1 gusting 3 3.6
2020-Jan-23 22:40 135 1 gusting 3 3.7
2020-Jan-23 22:35 175 1 gusting 3 3.7
2020-Jan-23 22:30 200 2 gusting 3 3.6
2020-Jan-23 22:25 195 2 gusting 2 3.6
2020-Jan-23 22:20 200 1 gusting 3 3.4
2020-Jan-23 22:15 210 3 gusting 3 2.7
2020-Jan-23 22:10 205 3 gusting 3 3.6
2020-Jan-23 22:05 195 2 gusting 3 3.6
2020-Jan-23 22:00 210 1 gusting 2 4.0
2020-Jan-23 21:55 210 1 gusting 2 4.3
2020-Jan-23 21:50 250 1 gusting 2 4.2
2020-Jan-23 21:45 190 1 gusting 3 4.2
2020-Jan-23 21:40 190 2 gusting 3 4.2
2020-Jan-23 21:35 195 3 gusting 3 4.2
2020-Jan-23 21:30 195 2 gusting 4 4.3
2020-Jan-23 21:25 190 2 gusting 4 4.3
2020-Jan-23 21:20 190 2 gusting 3 4.3
2020-Jan-23 21:15 205 2 gusting 2 4.2
2020-Jan-23 21:10 230 1 gusting 2 4.3
2020-Jan-23 21:05 230 2 gusting 2 4.3
2020-Jan-23 21:00 205 1 gusting 2 4.5
2020-Jan-23 20:55 210 2 gusting 3 4.5
2020-Jan-23 20:50 220 2 gusting 3 4.7
2020-Jan-23 20:45 095 1 gusting 3 5.0
2020-Jan-23 20:40 140 0 gusting 3 5.0
2020-Jan-23 20:35 110 1 gusting 4 5.1
2020-Jan-23 20:30 095 1 gusting 3 5.1
2020-Jan-23 20:25 130 2 gusting 3 5.1
2020-Jan-23 20:20 065 1 gusting 3 5.1
2020-Jan-23 20:15 020 1 gusting 4 5.1
2020-Jan-23 20:10 055 1 gusting 3 4.8
2020-Jan-23 20:05 355 1 gusting 3 4.8
2020-Jan-23 20:00 015 2 gusting 4 4.7
2020-Jan-23 19:55 035 2 gusting 4 4.7
2020-Jan-23 19:50 035 2 gusting 4 4.8
2020-Jan-23 19:45 040 3 gusting 5 4.8
2020-Jan-23 19:40 045 2 gusting 5 5.0
2020-Jan-23 19:35 045 3 gusting 5 4.7
2020-Jan-23 19:30 040 4 gusting 6 4.7
2020-Jan-23 19:25 050 3 gusting 6 4.8
2020-Jan-23 19:20 060 5 gusting 6 4.8
2020-Jan-23 19:15 050 3 gusting 5 5.0
2020-Jan-23 19:10 075 2 gusting 4 5.0
2020-Jan-23 19:05 025 3 gusting 4 4.8
2020-Jan-23 19:00 050 3 gusting 4 5.0
2020-Jan-23 18:55 020 2 gusting 4 4.7
2020-Jan-23 18:50 030 3 gusting 6 4.8
2020-Jan-23 18:45 025 4 gusting 6 4.6
2020-Jan-23 18:40 040 4 gusting 5 4.7
2020-Jan-23 18:35 040 4 gusting 6 4.7
2020-Jan-23 18:30 055 4 gusting 6 4.7
2020-Jan-23 18:25 065 4 gusting 5 4.8
2020-Jan-23 18:20 045 4 gusting 6 4.8
2020-Jan-23 18:15 025 4 gusting 6 4.7
2020-Jan-23 18:10 040 3 gusting 7 5.1
2020-Jan-23 18:05 050 4 gusting 7 4.7
2020-Jan-23 18:00 030 4 gusting 6 5.0
2020-Jan-23 17:55 050 3 gusting 6 5.1
2020-Jan-23 17:50 040 3 gusting 6 5.1
2020-Jan-23 17:40 070 2 gusting 5 5.1
2020-Jan-23 17:35 020 2 gusting 5 5.0
2020-Jan-23 17:30 065 2 gusting 5 5.0
2020-Jan-23 17:25 010 2 gusting 6 4.6
2020-Jan-23 17:20 4.6
2020-Jan-23 17:15 4.5
2020-Jan-23 17:10 320 3 gusting 5 4.1
2020-Jan-23 17:05 330 4 gusting 6 4.2
2020-Jan-23 17:00 315 4 gusting 6 3.7
2020-Jan-23 16:55 305 3 gusting 6 3.6
2020-Jan-23 16:50 325 5 gusting 6 3.6
2020-Jan-23 16:45 320 2 gusting 6 3.4
2020-Jan-23 16:40 330 3 gusting 5 3.4
2020-Jan-23 16:35 340 3 gusting 5 3.2
2020-Jan-23 16:30 325 4 gusting 6 3.1
2020-Jan-23 16:25 320 4 gusting 6 3.1
2020-Jan-23 16:20 310 4 gusting 6 3.1
2020-Jan-23 16:15 335 5 gusting 6 3.1
2020-Jan-23 16:10 320 4 gusting 6 3.0
2020-Jan-23 16:05 330 4 gusting 6 3.0
2020-Jan-23 16:00 325 3 gusting 5 3.0
2020-Jan-23 15:55 325 4 gusting 5 3.1
2020-Jan-23 15:50 355 3 gusting 5 2.9
2020-Jan-23 15:45 340 4 gusting 6 2.7
2020-Jan-23 15:40 2.7
2020-Jan-23 15:35 030 4 gusting 7 2.6
2020-Jan-23 15:30 2.5
2020-Jan-23 15:25 345 5 gusting 7 2.2
2020-Jan-23 15:20 350 5 gusting 7 2.5
2020-Jan-23 15:15 025 4 gusting 6 2.6
2020-Jan-23 15:10 345 2 gusting 6 2.5
2020-Jan-23 15:05 020 4 gusting 6 2.4
2020-Jan-23 15:00 035 5 gusting 7 2.1
2020-Jan-23 14:55 015 4 gusting 7 2.0
2020-Jan-23 14:50 005 4 gusting 6 1.9
2020-Jan-23 14:45 015 5 gusting 6 1.7
2020-Jan-23 14:40 015 4 gusting 6 1.6
2020-Jan-23 14:35 015 4 gusting 6 1.4
2020-Jan-23 14:30 345 4 gusting 6 1.1
2020-Jan-23 14:25 005 3 gusting 6 0.6
2020-Jan-23 14:20 355 2 gusting 5 0.6
2020-Jan-23 14:15 040 1 gusting 5 0.3
2020-Jan-23 14:10 025 3 gusting 5 0.2
2020-Jan-23 14:05 025 2 gusting 5 0.1
2020-Jan-23 14:00 010 1 gusting 4 -0.4
2020-Jan-23 13:55 -0.9
2020-Jan-23 13:50 350 1 gusting 2 -1.3
2020-Jan-23 13:45 320 1 gusting 3 -1.3
2020-Jan-23 13:40 -1.6
2020-Jan-23 13:35 -2.4
2020-Jan-23 13:30 235 0 gusting 2 -2.4
2020-Jan-23 13:25 225 1 gusting 2 -2.8
2020-Jan-23 13:20 245 1 gusting 2 -2.8
2020-Jan-23 13:15 310 0 gusting 4 -2.6
2020-Jan-23 13:10 355 1 gusting 4 -2.9
2020-Jan-23 13:05 060 1 gusting 4 -2.9
2020-Jan-23 13:00 350 1 gusting 4 -3.9
2020-Jan-23 12:55 305 0 gusting 1 -4.3
2020-Jan-23 12:50 290 1 gusting 1 -4.3
2020-Jan-23 12:45 270 0 gusting 1 -4.4
2020-Jan-23 12:40 290 0 gusting 1 -4.5
2020-Jan-23 12:35 265 0 gusting 3 -4.4
2020-Jan-23 12:30 005 1 gusting 3 -3.9
2020-Jan-23 12:25 090 0 gusting 2 -4.3
2020-Jan-23 12:20 075 0 gusting 2 -4.2
2020-Jan-23 12:15 060 1 gusting 2 -4.0
2020-Jan-23 12:10 075 1 gusting 2 -4.0
2020-Jan-23 12:05 075 0 gusting 3 -4.3
2020-Jan-23 12:00 110 1 gusting 4 -3.9
2020-Jan-23 11:55 345 1 gusting 4 -4.9
2020-Jan-23 11:50 345 1 gusting 3 -4.5
2020-Jan-23 11:45 005 2 gusting 3 -3.9
2020-Jan-23 11:40 075 1 gusting 3 -3.9
2020-Jan-23 11:35 100 1 gusting 3 -3.9
2020-Jan-23 11:30 220 1 gusting 2 -4.0
2020-Jan-23 11:25 225 1 gusting 2 -4.9
2020-Jan-23 11:20 230 1 gusting 1 -5.2
2020-Jan-23 11:15 245 1 gusting 2 -5.3
2020-Jan-23 11:10 225 1 gusting 2 -6.0
2020-Jan-23 11:05 235 2 gusting 2 -5.9
2020-Jan-23 11:00 250 2 gusting 2 -5.8
2020-Jan-23 10:55 290 1 gusting 2 -4.9
2020-Jan-23 10:50 320 1 gusting 3 -4.5
2020-Jan-23 10:45 340 1 gusting 3 -4.5
2020-Jan-23 10:40 325 1 gusting 2 -4.9
2020-Jan-23 10:35 305 2 gusting 2 -5.0
2020-Jan-23 10:30 290 2 gusting 3 -5.2
2020-Jan-23 10:25 290 2 gusting 3 -5.2
2020-Jan-23 10:20 290 3 gusting 3 -5.0
2020-Jan-23 10:15 290 3 gusting 3 -5.0
2020-Jan-23 10:10 285 3 gusting 4 -5.0
2020-Jan-23 10:05 285 3 gusting 4 -5.3
2020-Jan-23 10:00 285 3 gusting 3 -5.3
2020-Jan-23 09:55 275 2 gusting 3 -5.4
2020-Jan-23 09:50 270 2 gusting 2 -5.4
2020-Jan-23 09:45 295 2 gusting 2 -4.9
2020-Jan-23 09:40 305 2 gusting 2 -4.9
2020-Jan-23 09:35 300 1 gusting 2 -5.0
2020-Jan-23 09:30 295 1 gusting 2 -4.9
2020-Jan-23 09:25 300 2 gusting 2 -4.8
2020-Jan-23 09:20 290 1 gusting 2 -5.0
2020-Jan-23 09:15 310 2 gusting 3 -4.9
2020-Jan-23 09:10 280 2 gusting 3 -4.9
2020-Jan-23 09:05 275 2 gusting 2 -4.9
2020-Jan-23 09:00 285 2 gusting 2 -4.8
2020-Jan-23 08:55 305 2 gusting 2 -4.8
2020-Jan-23 08:50 290 2 gusting 2 -4.7
2020-Jan-23 08:45 300 1 gusting 2 -4.5
2020-Jan-23 08:40 295 0 gusting 1 -4.5
2020-Jan-23 08:35 245 0 gusting 1 -4.4
2020-Jan-23 08:30 195 1 gusting 2 -4.7
2020-Jan-23 08:25 215 1 gusting 3 -4.5
2020-Jan-23 08:20 220 2 gusting 3 -4.8
2020-Jan-23 08:15 230 3 gusting 3 -4.5
2020-Jan-23 08:10 220 2 gusting 2 -4.4
2020-Jan-23 08:05 240 2 gusting 2 -4.4
2020-Jan-23 08:00 215 2 gusting 2 -4.4
2020-Jan-23 07:55 225 2 gusting 2 -4.4
2020-Jan-23 07:50 230 2 gusting 3 -4.5
2020-Jan-23 07:45 205 3 gusting 3 -4.8
2020-Jan-23 07:40 220 3 gusting 3 -4.9
2020-Jan-23 07:35 235 2 gusting 2 -4.2
2020-Jan-23 07:30 270 1 gusting 2 -4.2
2020-Jan-23 07:25 295 1 gusting 2 -4.4
2020-Jan-23 07:20 295 2 gusting 3 -4.4
2020-Jan-23 07:15 300 2 gusting 3 -4.3
2020-Jan-23 07:10 295 2 gusting 3 -4.3
2020-Jan-23 07:05 285 3 gusting 3 -4.2
2020-Jan-23 07:00 290 2 gusting 3 -4.4
2020-Jan-23 06:55 290 3 gusting 3 -4.4
2020-Jan-23 06:50 300 2 gusting 3 -4.4
2020-Jan-23 06:45 300 2 gusting 3 -4.4
2020-Jan-23 06:40 295 3 gusting 3 -4.7
2020-Jan-23 06:35 280 2 gusting 3 -4.8
2020-Jan-23 06:30 290 3 gusting 4 -4.7
2020-Jan-23 06:25 290 3 gusting 4 -4.4
2020-Jan-23 06:20 290 2 gusting 2 -4.8
2020-Jan-23 06:15 260 1 gusting 2 -4.9
2020-Jan-23 06:10 225 1 gusting 2 -4.9
2020-Jan-23 06:05 245 1 gusting 1 -4.9
2020-Jan-23 06:00 255 1 gusting 1 -4.7
2020-Jan-23 05:55 280 1 gusting 1 -4.8
2020-Jan-23 05:50 285 1 gusting 2 -4.7
2020-Jan-23 05:45 260 2 gusting 2 -4.5
2020-Jan-23 05:40 230 2 gusting 3 -4.5
2020-Jan-23 05:35 235 2 gusting 3 -4.7
2020-Jan-23 05:30 225 2 gusting 3 -4.8
2020-Jan-23 05:25 235 2 gusting 3 -4.7
2020-Jan-23 05:20 255 2 gusting 3 -4.2
2020-Jan-23 05:15 260 2 gusting 3 -4.3
2020-Jan-23 05:10 270 3 gusting 3 -4.3
2020-Jan-23 05:05 245 3 gusting 3 -4.9
2020-Jan-23 05:00 230 2 gusting 3 -4.8
2020-Jan-23 04:55 230 3 gusting 3 -4.5
2020-Jan-23 04:50 215 2 gusting 2 -4.4
2020-Jan-23 04:45 230 2 gusting 2 -4.4
2020-Jan-23 04:40 255 2 gusting 2 -4.4
2020-Jan-23 04:35 260 2 gusting 2 -4.4
2020-Jan-23 04:30 240 1 gusting 2 -4.4
2020-Jan-23 04:25 245 2 gusting 2 -4.5
2020-Jan-23 04:20 235 2 gusting 2 -4.4
2020-Jan-23 04:15 230 2 gusting 2 -4.4
2020-Jan-23 04:10 240 1 gusting 2 -4.2
2020-Jan-23 04:05 280 1 gusting 2 -3.6
2020-Jan-23 04:00 325 1 gusting 1 -3.5
2020-Jan-23 03:55 345 0 gusting 3 -3.6
2020-Jan-23 03:50 305 2 gusting 3 -3.5
2020-Jan-23 03:45 315 2 gusting 2 -3.5
2020-Jan-23 03:40 300 0 gusting 1 -3.8
2020-Jan-23 03:35 300 0 gusting 1 -3.6
2020-Jan-23 03:30 295 1 gusting 1 -3.8
2020-Jan-23 03:25 210 0 gusting 1 -3.6
2020-Jan-23 03:20 195 1 gusting 1 -3.4
2020-Jan-23 03:15 285 1 gusting 2 -3.4
2020-Jan-23 03:10 280 1 gusting 2 -3.4
2020-Jan-23 03:05 260 1 gusting 2 -3.4
2020-Jan-23 03:00 255 1 gusting 2 -3.6
2020-Jan-23 02:55 275 2 gusting 2 -3.5
2020-Jan-23 02:50 270 1 gusting 2 -3.6
2020-Jan-23 02:45 235 1 gusting 1 -3.5
2020-Jan-23 02:40 235 1 gusting 1 -3.3
2020-Jan-23 02:35 325 0 gusting 1 -2.9
2020-Jan-23 02:30 090 0 gusting 1 -2.4
2020-Jan-23 02:25 145 0 gusting 2 -2.6
2020-Jan-23 02:20 190 1 gusting 2 -3.3
2020-Jan-23 02:15 255 2 gusting 2 -3.3
2020-Jan-23 02:10 210 1 gusting 2 -2.4
2020-Jan-23 02:05 010 0 gusting 2 -1.9
2020-Jan-23 02:00 180 2 gusting 2 -2.9
2020-Jan-23 01:55 210 1 gusting 2 -2.5
2020-Jan-23 01:50 165 2 gusting 2 -2.0
2020-Jan-23 01:45 090 1 gusting 2 -2.3
2020-Jan-23 01:40 085 1 gusting 2 -2.3
2020-Jan-23 01:35 010 1 gusting 2 -2.5
2020-Jan-23 01:30 355 1 gusting 2 -2.4
2020-Jan-23 01:25 350 1 gusting 3 -2.4
2020-Jan-23 01:20 -2.3
2020-Jan-23 01:15 085 0 gusting 2 -2.0
2020-Jan-23 01:10 015 1 gusting 2 -1.4
2020-Jan-23 01:05 250 0 gusting 2 -2.1
2020-Jan-23 01:00 240 1 gusting 2 -2.1
2020-Jan-23 00:55 230 2 gusting 3 -2.0
2020-Jan-23 00:50 230 2 gusting 4 -2.6
2020-Jan-23 00:45 210 3 gusting 4 -2.8
2020-Jan-23 00:40 215 3 gusting 3 -2.4
2020-Jan-23 00:35 235 2 gusting 2 -1.4
2020-Jan-23 00:30 180 1 gusting 2 -0.5
2020-Jan-23 00:25 200 2 gusting 2 -1.5
2020-Jan-23 00:20 230 1 gusting 2 -2.0
2020-Jan-23 00:15 215 2 gusting 2 -1.8
2020-Jan-23 00:10 210 1 gusting 2 -1.4
2020-Jan-23 00:05 250 0 gusting 1 -1.0
2020-Jan-23 00:00 260 1 gusting 1 -1.1
2020-Jan-22 23:55 265 1 gusting 2 -0.9
2020-Jan-22 23:50 290 1 gusting 2 -0.8
2020-Jan-22 23:45 280 1 gusting 2 -0.4
2020-Jan-22 23:40 290 1 gusting 2 -0.3
2020-Jan-22 23:35 245 2 gusting 3 -1.0
2020-Jan-22 23:30 215 3 gusting 3 -0.8
2020-Jan-22 23:25 210 2 gusting 3 -0.9
2020-Jan-22 23:20 255 1 gusting 2 -0.9
2020-Jan-22 23:15 300 1 gusting 2 -0.4
2020-Jan-22 23:10 320 1 gusting 2 -0.1
2020-Jan-22 23:05 345 1 gusting 3 0.5
2020-Jan-22 23:00 1.0